[[{"header":{"parameterUnit":"m.s-1","parameterCategory":2,"la1":30.2991,"la2":30.254,"lo1":-89.0895,"lo2":-89.0444,"dy":0.0017,"dx":0.0017,"nx":28,"ny":28,"refTime":"2024-03-18T09:00:00:Z","depth":"0","parameterNumber":2,"parameterNumberName":"U-component_of_CURRENTS"},"data":[0,0,0,0,0,0,0,0,0,0,0,0,0,0,0,0,0,0,0,0,0,0,0,0,0,0,0,0,0,0,0,0,0,0,0,0,0,0,0,0,0,0,0,0,0,0,0,0,0,0,0,0,0,0,0,0,0,0,0.3473,0.3474,0,0.3522,0.3522,0.3522,0.3525,0.3525,0.3525,0.3524,0.3521,0.3521,0.3521,0,0,0,0,0,0,0,0,0,0,0,0,0,0.3397,0.3398,0.3473,0.3474,0.3475,0.3522,0.3522,0.3522,0.3525,0.3525,0.3525,0.3524,0.3521,0.3521,0.3521,0,0,0,0,0,0,0,0,0,0,0,0,0,0.3433,0.3398,0.3473,0.3484,0.3486,0.3521,0.3522,0.3522,0.3525,0.3525,0.3525,0.3524,0.3521,0.3521,0.3521,0.3531,0,0,0.3522,0.3522,0,0,0,0,0,0,0,0,0.3431,0.3435,0.3482,0.3484,0.3486,0.352,0.3494,0.3524,0.3526,0.3507,0.3524,0.3524,0.3518,0.3518,0.3525,0.3531,0.353,0.3522,0.3522,0.3522,0.3522,0,0,0,0,0,0,0,0.3428,0.3434,0.3489,0.3483,0.3485,0.3492,0.3496,0.3499,0.3511,0.3509,0.351,0.352,0.3518,0.3525,0.3525,0.353,0.3522,0.3522,0.3522,0.3522,0.3576,0.3577,0,0,0,0,0,0,0.3429,0.3431,0.3488,0.3491,0.346,0.3494,0.3498,0.3507,0.3512,0.3514,0.3521,0.352,0.3524,0.3524,0.3524,0.3562,0.3522,0.3522,0.3522,0.3574,0.3576,0.3577,0,0,0,0,0,0,0.3427,0.3433,0.3486,0.3465,0.3472,0.3495,0.3505,0.3508,0.352,0.3522,0.3522,0.3531,0.3524,0.3524,0.3539,0.3561,0.3522,0.3523,0.3573,0.3575,0.3577,0.3621,0,0,0,0,0,0,0.3424,0.3432,0.3436,0.3465,0.3474,0.3516,0.3506,0.3509,0.3528,0.3528,0.3531,0.353,0.3524,0.3539,0.354,0.3561,0.3523,0.3571,0.3574,0.3576,0.3618,0.3624,0.3629,0,0,0,0,0,0.3421,0.343,0.3435,0.3442,0.3479,0.3517,0.3522,0.3535,0.3529,0.3542,0.3544,0.353,0.3555,0.354,0.354,0.3562,0.357,0.3573,0.3576,0.3615,0.3623,0.3629,0,0,0,0,0,0,0.3399,0.3432,0.3439,0.3457,0.3489,0.3519,0.3533,0.354,0.3553,0.355,0.3544,0.3544,0.3569,0.356,0.3544,0.3586,0.3561,0.3564,0.3591,0.3598,0.3604,0.3622,0.3523,0,0,0,0,0,0.3397,0.3411,0.3448,0.3464,0.3482,0.3508,0.3523,0.3536,0.3553,0.3558,0.356,0.3565,0.3582,0.3584,0.3595,0.3612,0.3623,0.3628,0.3633,0.3638,0.3655,0.3687,0.3698,0.3587,0.3587,0.3587,0,0,0.3392,0.3414,0.3421,0.3461,0.3485,0.3519,0.3516,0.3547,0.3573,0.3555,0.3582,0.3587,0.3593,0.3619,0.3629,0.3612,0.3677,0.3642,0.3646,0.366,0.3691,0.3702,0.3712,0.3589,0.3588,0.3588,0,0,0.3394,0.3414,0.3427,0.346,0.3503,0.3528,0.3539,0.3574,0.3587,0.3612,0.3615,0.3638,0.3644,0.3666,0.3674,0.3719,0.3711,0.3716,0.3754,0.3785,0.3795,0.3803,0.3835,0.3846,0.3713,0.3713,0.3713,0,0.3388,0.3412,0.3439,0.347,0.3498,0.3534,0.3563,0.3592,0.3624,0.3642,0.3624,0.3669,0.3672,0.3722,0.3741,0.3733,0.3747,0.3724,0.3793,0.3802,0.381,0.384,0.3851,0.3715,0.3715,0.3715,0.3715,0,0.3405,0.343,0.3448,0.3497,0.353,0.3566,0.3613,0.3638,0.3652,0.3683,0.3727,0.3736,0.3763,0.377,0.3769,0.3832,0.3823,0.38,0.3774,0.3823,0.3852,0.3863,0.3719,0.3718,0.3717,0.3717,0,0,0.3377,0.3444,0.3449,0.3469,0.3548,0.3569,0.3625,0.3683,0.3722,0.3748,0.3792,0.3831,0.3843,0.3856,0.386,0.3889,0.3958,0.3871,0.3872,0.3902,0.4032,0.4007,0.4017,0.3942,0.3945,0.3946,0.4031,0,0.3384,0.3427,0.3467,0.3513,0.3541,0.3596,0.3648,0.3705,0.3752,0.3807,0.3839,0.3886,0.3876,0.389,0.3924,0.3957,0.3989,0.3938,0.3981,0.3983,0.3954,0.4029,0.392,0.3985,0.4042,0.4043,0.4045,0,0.3384,0.3415,0.3451,0.3516,0.3534,0.3568,0.3647,0.3698,0.38,0.3846,0.3907,0.3936,0.4009,0.3973,0.4063,0.4029,0.4042,0.4055,0.4058,0.4029,0.398,0.3945,0.4002,0.3907,0.4062,0.406,0.4059,0,0.3333,0.34,0.3419,0.3444,0.3529,0.3547,0.3596,0.37,0.3768,0.3873,0.3932,0.4012,0.4058,0.4091,0.4133,0.41,0.422,0.4169,0.4159,0.4157,0.4072,0.4059,0.4042,0.4225,0.4225,0.4224,0.4224,0,0.3317,0.3331,0.3389,0.3399,0.3442,0.3504,0.3578,0.3646,0.3772,0.3851,0.3942,0.4014,0.409,0.416,0.4171,0.4222,0.4253,0.4195,0.4188,0.4084,0.4072,0.399,0.3937,0.4228,0.4227,0.4226,0.4226,0,0.325,0.3292,0.3318,0.3388,0.3416,0.3437,0.3574,0.362,0.3757,0.3857,0.3892,0.4052,0.4145,0.4215,0.4291,0.4277,0.4204,0.4312,0.4194,0.417,0.4043,0.3996,0.384,0.3729,0.4311,0.4311,0.4311,0,0.3215,0.322,0.3293,0.3308,0.3334,0.3399,0.3444,0.3596,0.3661,0.3861,0.3888,0.4041,0.4129,0.4275,0.4298,0.4344,0.4201,0.4243,0.4155,0.405,0.3993,0.3817,0.3722,0.4062,0.406,0.4059,0.4057,0,0.315,0.3175,0.3193,0.3236,0.3265,0.3325,0.3398,0.3469,0.3621,0.3725,0.385,0.3942,0.4118,0.4147,0.4242,0.4244,0.405,0.4209,0.4127,0.3834,0.3614,0.3498,0.3997,0.4043,0.4044,0.4045,0.4046,0.4047,0.3091,0.3091,0.3118,0.3142,0.3177,0.3204,0.3215,0.3308,0.3408,0.3507,0.3705,0.3789,0.3963,0.41,0.4076,0.4001,0.395,0.3896,0.3864,0.3706,0.3545,0.4022,0.4037,0.4038,0.404,0.4041,0.4042,0,0.2999,0.3005,0.3025,0.3032,0.3007,0.3078,0.3133,0.3118,0.3149,0.3309,0.342,0.3603,0.3671,0.3763,0.381,0.3692,0.3502,0.3587,0.3316,0.3251,0.3718,0.3654,0.3553,0.3553,0.3553,0.3553,0.3553,0.3553,0.2948,0.2916,0.2921,0.2848,0.2848,0.2779,0.2778,0.2781,0.2864,0.2943,0.3034,0.3201,0.3462,0.3592,0.3516,0.3434,0.3164,0.3031,0.2992,0.3346,0.3371,0.3395,0.3323,0.3154,0.3154,0.2404,0.2399,0.2395]},{"header":{"parameterUnit":"m.s-1","parameterCategory":2,"la1":30.2991,"la2":30.254,"lo1":-89.0895,"lo2":-89.0444,"dy":0.0017,"dx":0.0017,"nx":28,"ny":28,"refTime":"2024-03-18T09:00:00:Z","depth":"0","parameterNumber":3,"parameterNumberName":"V-component_of_CURRENTS"},"data":[0,0,0,0,0,0,0,0,0,0,0,0,0,0,0,0,0,0,0,0,0,0,0,0,0,0,0,0,0,0,0,0,0,0,0,0,0,0,0,0,0,0,0,0,0,0,0,0,0,0,0,0,0,0,0,0,0,0,0.0024,0.0024,0,-0.0049,-0.005,-0.0051,-0.0101,-0.0102,-0.0102,-0.0102,-0.0182,-0.0184,-0.0186,0,0,0,0,0,0,0,0,0,0,0,0,0,0.0096,0.0095,0.0024,0.0024,0.0023,-0.0049,-0.005,-0.0051,-0.0101,-0.0102,-0.0102,-0.0102,-0.0181,-0.0183,-0.0186,0,0,0,0,0,0,0,0,0,0,0,0,0,0.0048,0.0095,0.0025,-0.0011,-0.0015,-0.0049,-0.005,-0.0052,-0.0101,-0.0102,-0.0102,-0.0102,-0.0181,-0.0183,-0.0186,-0.0193,0,0,-0.0194,-0.0195,0,0,0,0,0,0,0,0,0.005,0.0045,-0.0005,-0.0008,-0.0013,-0.0066,-0.0054,-0.0099,-0.0101,-0.0069,-0.0102,-0.0103,-0.0143,-0.0149,-0.0162,-0.0196,-0.02,-0.0195,-0.0196,-0.0197,-0.0198,0,0,0,0,0,0,0,0.0054,0.0048,-0.0005,-0.0005,-0.001,-0.0032,-0.0039,-0.0063,-0.0102,-0.0071,-0.0075,-0.0083,-0.0146,-0.0159,-0.0164,-0.0201,-0.0194,-0.0197,-0.0199,-0.02,-0.0235,-0.0234,0,0,0,0,0,0,0.0065,0.0051,-0.0003,-0.0007,0.0019,-0.0032,-0.0041,-0.0049,-0.0102,-0.0111,-0.0082,-0.0085,-0.0155,-0.0161,-0.0167,-0.016,-0.0197,-0.02,-0.0201,-0.0236,-0.0235,-0.0234,0,0,0,0,0,0,0.0067,0.0061,0.0,0.0021,0.0011,-0.0033,-0.0042,-0.005,-0.006,-0.011,-0.0119,-0.0084,-0.0155,-0.0164,-0.018,-0.0164,-0.0201,-0.0204,-0.0236,-0.0235,-0.0234,-0.0156,0,0,0,0,0,0,0.007,0.0062,0.0066,0.0021,0.0011,-0.0008,-0.0042,-0.0051,-0.0064,-0.0068,-0.0114,-0.0123,-0.0156,-0.0176,-0.0183,-0.0168,-0.0206,-0.0237,-0.0236,-0.0235,-0.016,-0.0153,-0.0147,0,0,0,0,0,0.0072,0.0082,0.0067,0.0061,0.0015,-0.0007,-0.0014,-0.0048,-0.0063,-0.006,-0.0093,-0.0121,-0.0173,-0.0178,-0.0186,-0.0172,-0.0238,-0.0236,-0.0235,-0.0163,-0.0154,-0.0147,0,0,0,0,0,0,0.0116,0.0077,0.0059,0.0056,0.0032,-0.0015,-0.0014,-0.0039,-0.0063,-0.0065,-0.0114,-0.0124,-0.0135,-0.0162,-0.0166,-0.0178,-0.0209,-0.0209,-0.0152,-0.0144,-0.0138,-0.0113,-0.0208,0,0,0,0,0,0.0128,0.0124,0.0083,0.0082,0.0074,0.0032,0.002,-0.0003,-0.0033,-0.0045,-0.0079,-0.0111,-0.0135,-0.0145,-0.0174,-0.0177,-0.0205,-0.0174,-0.0167,-0.0161,-0.0147,-0.0178,-0.0173,-0.0229,-0.0229,-0.0229,0,0,0.0143,0.0123,0.0119,0.0092,0.007,0.0072,0.0024,0.0013,0.0015,-0.0048,-0.0053,-0.0092,-0.0132,-0.014,-0.0146,-0.0159,-0.016,-0.0159,-0.0154,-0.0142,-0.0176,-0.0171,-0.0166,-0.0228,-0.0228,-0.0228,0,0,0.0176,0.0156,0.0166,0.0153,0.0128,0.0106,0.0108,0.0067,0.005,0.0037,-0.0007,-0.003,-0.007,-0.0093,-0.011,-0.0082,-0.0128,-0.0093,-0.0036,-0.0066,-0.0062,-0.0058,-0.0084,-0.0084,-0.0086,-0.0085,-0.0085,0,0.0197,0.0206,0.0167,0.0177,0.0179,0.0129,0.0149,0.0125,0.0084,0.0081,0.0048,-0.0005,-0.0045,-0.0047,-0.0041,-0.0066,-0.0091,-0.0062,-0.0057,-0.0054,-0.0052,-0.008,-0.008,-0.0081,-0.0082,-0.0082,-0.0083,0,0.024,0.025,0.0258,0.0257,0.0252,0.0263,0.0229,0.0217,0.0189,0.0167,0.0148,0.0087,0.006,0.0039,0.0006,0.0009,-0.0017,-0.0049,-0.0074,-0.0041,-0.0073,-0.0075,-0.0076,-0.0077,-0.0078,-0.0079,0,0,0.0282,0.0289,0.0293,0.0311,0.0301,0.0301,0.0306,0.0303,0.0322,0.0263,0.0278,0.0218,0.0183,0.0162,0.011,0.0081,0.0068,0.0031,0.0028,0.0011,0.0004,-0.0004,-0.0008,0.0034,0.0034,0.0034,-0.0024,0,0.0332,0.0379,0.0365,0.0413,0.0438,0.0402,0.0417,0.0403,0.0389,0.0388,0.0317,0.031,0.0231,0.0221,0.0179,0.0099,0.0067,0.0087,-0.003,-0.0033,-0.004,-0.0008,0.0029,-0.0018,-0.0026,-0.0026,-0.0026,0,0.0384,0.0411,0.047,0.05,0.0508,0.0523,0.0547,0.056,0.0545,0.053,0.0502,0.0446,0.0397,0.032,0.0202,0.0217,0.0123,0.0051,0.0046,0.0013,-0.0044,-0.0054,-0.0021,-0.0202,-0.003,-0.0029,-0.0029,0,0.0442,0.0485,0.054,0.0551,0.0573,0.0585,0.0601,0.0606,0.0647,0.0631,0.065,0.0568,0.054,0.0408,0.0252,0.0227,0.0119,0.0063,-0.0034,-0.0036,-0.0038,-0.004,-0.0187,-0.0019,-0.0019,-0.0019,-0.0019,0,0.0508,0.0548,0.057,0.0598,0.067,0.0655,0.0736,0.0734,0.0767,0.0835,0.0736,0.0762,0.056,0.0468,0.0303,0.0143,0.0155,-0.001,-0.0046,-0.001,-0.0009,-0.0195,-0.0291,-0.0021,-0.002,-0.002,-0.002,0,0.056,0.0576,0.064,0.0677,0.0701,0.0752,0.0836,0.0896,0.0906,0.0987,0.0985,0.0919,0.08,0.0594,0.0393,0.023,-0.0029,-0.0002,0.0058,0.003,-0.0237,-0.0328,-0.0498,-0.0565,-0.0118,-0.0118,-0.0119,0,0.0591,0.0631,0.0707,0.0759,0.0779,0.086,0.0924,0.0966,0.1048,0.1093,0.1141,0.1053,0.1027,0.0734,0.0432,0.0154,-0.0028,-0.0013,-0.006,-0.0233,-0.0362,-0.0437,-0.0486,-0.0036,-0.0036,-0.0036,-0.0035,0,0.0653,0.0677,0.0731,0.0846,0.092,0.1025,0.1121,0.1209,0.1264,0.133,0.1408,0.1394,0.1119,0.0872,0.0479,0.0273,-0.012,-0.0017,-0.0212,-0.0314,-0.0388,-0.0474,-0.0023,-0.0033,-0.0033,-0.0033,-0.0033,-0.0034,0.0699,0.0752,0.083,0.0939,0.1038,0.1174,0.1275,0.1387,0.1533,0.1657,0.1629,0.1661,0.1277,0.0765,0.0446,-0.0102,-0.0119,-0.0274,-0.037,-0.0432,-0.0494,-0.0032,-0.0075,-0.0075,-0.0076,-0.0076,-0.0076,0,0.0755,0.0819,0.092,0.105,0.117,0.1215,0.1396,0.1509,0.1688,0.1829,0.1913,0.1783,0.1297,0.0776,0.0036,-0.0377,-0.0523,-0.0606,-0.0714,-0.0748,-0.0348,-0.0343,-0.0425,-0.0425,-0.0424,-0.0424,-0.0424,-0.0424,0.0785,0.0886,0.094,0.1139,0.1237,0.1411,0.1522,0.1698,0.1851,0.2052,0.2125,0.2151,0.1758,0.0406,-0.0529,-0.0747,-0.1016,-0.1081,-0.1233,-0.0979,-0.0956,-0.0934,-0.0954,-0.1162,-0.1163,-0.157,-0.1574,-0.1577]}],[{"header":{"parameterUnit":"m.s-1","parameterCategory":2,"la1":30.2991,"la2":30.254,"lo1":-89.0895,"lo2":-89.0444,"dy":0.0017,"dx":0.0017,"nx":28,"ny":28,"refTime":"2024-03-18T09:00:00:Z","depth":"2","parameterNumber":2,"parameterNumberName":"U-component_of_CURRENTS"},"data":[0,0,0,0,0,0,0,0,0,0,0,0,0,0,0,0,0,0,0,0,0,0,0,0,0,0,0,0,0,0,0,0,0,0,0,0,0,0,0,0,0,0,0,0,0,0,0,0,0,0,0,0,0,0,0,0,0,0,0.2822,0.2822,0,0.2864,0.2865,0.2865,0.2879,0.288,0.288,0.288,0.2898,0.2898,0.2899,0,0,0,0,0,0,0,0,0,0,0,0,0,0.276,0.2761,0.2822,0.2822,0.2823,0.2864,0.2865,0.2865,0.2879,0.288,0.288,0.288,0.2898,0.2898,0.2899,0,0,0,0,0,0,0,0,0,0,0,0,0,0.2791,0.2761,0.2821,0.2837,0.2839,0.2864,0.2865,0.2865,0.2879,0.288,0.288,0.288,0.2898,0.2898,0.2899,0.2901,0,0,0.2901,0.2901,0,0,0,0,0,0,0,0,0.2789,0.2793,0.2834,0.2836,0.2839,0.2869,0.285,0.2877,0.2879,0.2861,0.288,0.288,0.2888,0.2889,0.2894,0.2902,0.2903,0.2901,0.2901,0.2902,0.2902,0,0,0,0,0,0,0,0.2787,0.2791,0.2836,0.2835,0.2838,0.2845,0.2849,0.2855,0.2871,0.2863,0.2865,0.2874,0.2888,0.2893,0.2894,0.2903,0.2901,0.2902,0.2902,0.2902,0.297,0.2971,0,0,0,0,0,0,0.2786,0.2789,0.2835,0.2837,0.2816,0.2846,0.2851,0.2857,0.2872,0.2875,0.2874,0.2874,0.2892,0.2893,0.2895,0.2945,0.2902,0.2902,0.2903,0.2969,0.297,0.2972,0,0,0,0,0,0,0.2785,0.279,0.2833,0.2816,0.2823,0.2847,0.2854,0.2858,0.2876,0.288,0.2883,0.2889,0.2892,0.2894,0.2917,0.2944,0.2903,0.2903,0.2967,0.2969,0.2971,0.3015,0,0,0,0,0,0,0.2783,0.2789,0.2796,0.2816,0.2824,0.2859,0.2855,0.2859,0.2881,0.2883,0.2894,0.2896,0.2892,0.2916,0.2918,0.2944,0.2904,0.2965,0.2968,0.297,0.3012,0.3018,0.3024,0,0,0,0,0,0.278,0.2789,0.2796,0.2802,0.2832,0.2861,0.2865,0.2881,0.2882,0.2896,0.2905,0.2896,0.2934,0.2918,0.2919,0.2946,0.2964,0.2967,0.297,0.3009,0.3017,0.3024,0,0,0,0,0,0,0.2766,0.2792,0.28,0.2816,0.2843,0.2864,0.288,0.2889,0.2907,0.2911,0.2909,0.2912,0.2946,0.294,0.2921,0.2975,0.295,0.2953,0.2979,0.2986,0.2992,0.3009,0.2904,0,0,0,0,0,0.2766,0.2781,0.2809,0.2824,0.2839,0.2861,0.2876,0.2889,0.2908,0.2916,0.2924,0.2937,0.2958,0.2966,0.2981,0.3004,0.3014,0.3025,0.3031,0.3036,0.3052,0.3087,0.3098,0.2982,0.2982,0.2982,0,0,0.2765,0.2783,0.2791,0.2823,0.2844,0.2871,0.287,0.2901,0.2927,0.2915,0.295,0.296,0.2971,0.3003,0.3017,0.3001,0.3075,0.304,0.3044,0.3058,0.3092,0.3103,0.3113,0.2984,0.2984,0.2984,0,0,0.2768,0.2788,0.2801,0.2828,0.2866,0.2886,0.2898,0.2929,0.2947,0.2977,0.2985,0.3014,0.303,0.3054,0.3064,0.3113,0.3109,0.3116,0.3157,0.319,0.32,0.3209,0.3237,0.3248,0.3115,0.3115,0.3115,0,0.2766,0.2787,0.281,0.2836,0.2861,0.2895,0.292,0.2949,0.2983,0.3004,0.2994,0.3051,0.3058,0.3112,0.3134,0.3128,0.3144,0.3124,0.3198,0.3207,0.3215,0.3242,0.3254,0.3117,0.3117,0.3117,0.3117,0,0.278,0.2804,0.2819,0.2862,0.2892,0.2923,0.2967,0.2997,0.3018,0.3048,0.3102,0.3118,0.3154,0.3163,0.3164,0.3233,0.3224,0.3204,0.3178,0.323,0.3255,0.3266,0.3121,0.312,0.3119,0.3119,0,0,0.2754,0.2815,0.2821,0.2839,0.2909,0.2927,0.2985,0.304,0.3081,0.3116,0.3167,0.3213,0.3232,0.3248,0.3258,0.329,0.3362,0.3278,0.3278,0.3303,0.344,0.3393,0.34,0.3352,0.3355,0.3356,0.3434,0,0.2759,0.2797,0.2833,0.2876,0.29,0.2954,0.3006,0.3064,0.3113,0.3174,0.3215,0.3271,0.3263,0.3288,0.3324,0.336,0.3394,0.3343,0.3389,0.3391,0.334,0.3412,0.3145,0.3189,0.3445,0.3447,0.3448,0,0.2758,0.2784,0.2819,0.288,0.2897,0.2933,0.3013,0.3066,0.317,0.3218,0.3286,0.3324,0.3404,0.3375,0.3466,0.3435,0.345,0.3463,0.3466,0.3417,0.3365,0.3179,0.3199,0.3466,0.3465,0.3464,0.3462,0,0.2711,0.2771,0.2792,0.2816,0.2896,0.2921,0.2971,0.3074,0.3142,0.3254,0.3317,0.3401,0.346,0.3495,0.3538,0.3509,0.3625,0.3578,0.3547,0.3543,0.3324,0.3297,0.3636,0.3636,0.3636,0.3635,0.3635,0,0.2693,0.2709,0.2769,0.278,0.2827,0.2889,0.2967,0.3035,0.3162,0.3242,0.3338,0.3411,0.3495,0.3565,0.3575,0.3613,0.3656,0.3581,0.3571,0.3332,0.3307,0.3547,0.3536,0.3638,0.3638,0.3637,0.3637,0,0.2635,0.2676,0.2703,0.2775,0.2805,0.2834,0.297,0.3018,0.3156,0.3262,0.3304,0.3457,0.3546,0.3614,0.3689,0.3665,0.3693,0.3686,0.3407,0.3363,0.3576,0.3567,0.3661,0.366,0.3659,0.3659,0.3658,0,0.2605,0.2612,0.2686,0.2703,0.2734,0.2807,0.2853,0.3001,0.3066,0.3268,0.33,0.3451,0.3521,0.3643,0.3637,0.3663,0.3706,0.3416,0.3311,0.3604,0.3585,0.3576,0.3567,0.3034,0.3028,0.3024,0.302,0,0.2547,0.2575,0.2595,0.2641,0.2676,0.2734,0.2814,0.2879,0.3033,0.3136,0.3252,0.333,0.3465,0.3387,0.3451,0.3419,0.3392,0.3326,0.3708,0.3078,0.3021,0.3,0.301,0.298,0.2984,0.2987,0.2989,0.2991,0.2499,0.25,0.2529,0.2558,0.2596,0.2621,0.2632,0.2726,0.2819,0.2916,0.3083,0.3107,0.3176,0.3143,0.3062,0.3004,0.3231,0.307,0.308,0.3096,0.3018,0.2965,0.2898,0.2901,0.2904,0.2907,0.2909,0,0.2418,0.2425,0.2445,0.2456,0.2434,0.2508,0.256,0.2541,0.2571,0.2694,0.278,0.2623,0.2608,0.266,0.2522,0.2544,0.2477,0.2428,0.2304,0.235,0.2389,0.2269,0.1953,0.1949,0.1946,0.1943,0,0,0.2375,0.2345,0.2345,0.2279,0.2289,0.2228,0.2227,0.2224,0.2276,0.227,0.2274,0.2495,0.2599,0.2239,0.2212,0.2045,0.2165,0.1967,0.2747,0.2647,0.268,0.279,0.2663,0,0,0,0,0]},{"header":{"parameterUnit":"m.s-1","parameterCategory":2,"la1":30.2991,"la2":30.254,"lo1":-89.0895,"lo2":-89.0444,"dy":0.0017,"dx":0.0017,"nx":28,"ny":28,"refTime":"2024-03-18T09:00:00:Z","depth":"2","parameterNumber":3,"parameterNumberName":"V-component_of_CURRENTS"},"data":[0,0,0,0,0,0,0,0,0,0,0,0,0,0,0,0,0,0,0,0,0,0,0,0,0,0,0,0,0,0,0,0,0,0,0,0,0,0,0,0,0,0,0,0,0,0,0,0,0,0,0,0,0,0,0,0,0,0,0.0132,0.0131,0,0.007,0.007,0.0069,0.0026,0.0025,0.0025,0.0025,-0.0045,-0.0047,-0.0048,0,0,0,0,0,0,0,0,0,0,0,0,0,0.0186,0.0185,0.0132,0.0131,0.013,0.0071,0.007,0.0069,0.0026,0.0025,0.0025,0.0024,-0.0045,-0.0046,-0.0048,0,0,0,0,0,0,0,0,0,0,0,0,0,0.0147,0.0185,0.0132,0.0102,0.0098,0.0071,0.007,0.0069,0.0026,0.0025,0.0025,0.0024,-0.0044,-0.0046,-0.0049,-0.0053,0,0,-0.0056,-0.0057,0,0,0,0,0,0,0,0,0.015,0.0145,0.0107,0.0104,0.01,0.0055,0.0063,0.0028,0.0026,0.0053,0.0025,0.0024,-0.0012,-0.0017,-0.0027,-0.0056,-0.0059,-0.0056,-0.0057,-0.0058,-0.0059,0,0,0,0,0,0,0,0.0152,0.0148,0.0107,0.0106,0.0102,0.0082,0.0077,0.0056,0.0024,0.0051,0.0047,0.0041,-0.0014,-0.0025,-0.0029,-0.006,-0.0056,-0.0058,-0.0059,-0.006,-0.0093,-0.0093,0,0,0,0,0,0,0.0162,0.015,0.0109,0.0105,0.0124,0.0082,0.0075,0.007,0.0024,0.0017,0.0042,0.0039,-0.0021,-0.0027,-0.0032,-0.0027,-0.0058,-0.006,-0.0062,-0.0094,-0.0093,-0.0092,0,0,0,0,0,0,0.0163,0.0159,0.0112,0.0126,0.0119,0.0082,0.0076,0.0069,0.006,0.0017,0.001,0.004,-0.0021,-0.0029,-0.0043,-0.003,-0.0061,-0.0064,-0.0094,-0.0093,-0.0093,-0.0025,0,0,0,0,0,0,0.0165,0.016,0.0164,0.0127,0.0119,0.0105,0.0076,0.0068,0.0056,0.0053,0.0013,0.0006,-0.0022,-0.0039,-0.0045,-0.0034,-0.0065,-0.0095,-0.0094,-0.0093,-0.0027,-0.0022,-0.0017,0,0,0,0,0,0.0167,0.0177,0.0164,0.0159,0.0124,0.0106,0.01,0.0071,0.0057,0.006,0.0033,0.0007,-0.0037,-0.004,-0.0048,-0.0037,-0.0095,-0.0094,-0.0093,-0.003,-0.0023,-0.0017,0,0,0,0,0,0,0.0203,0.0173,0.0158,0.0158,0.0137,0.0099,0.0099,0.0078,0.0058,0.0056,0.0014,0.0006,-0.0004,-0.0028,-0.003,-0.0044,-0.0071,-0.0071,-0.002,-0.0014,-0.0008,0.0011,-0.0067,0,0,0,0,0,0.0213,0.0212,0.0179,0.018,0.0172,0.0137,0.0128,0.0108,0.0083,0.0074,0.0044,0.0015,-0.0005,-0.0015,-0.0039,-0.0043,-0.0073,-0.0041,-0.0036,-0.0031,-0.002,-0.0058,-0.0055,-0.0089,-0.0089,-0.0089,0,0,0.0225,0.021,0.0208,0.0187,0.0169,0.0172,0.0131,0.0122,0.0124,0.007,0.0066,0.0033,-0.0002,-0.0009,-0.0015,-0.0027,-0.0037,-0.003,-0.0025,-0.0017,-0.0056,-0.0053,-0.005,-0.0088,-0.0088,-0.0088,0,0,0.0254,0.0238,0.0248,0.0239,0.0218,0.0201,0.0202,0.0168,0.0153,0.0143,0.0106,0.0082,0.005,0.0028,0.0013,0.0035,-0.0009,0.0027,0.0073,0.0037,0.0039,0.0041,0.0008,0.0007,0.0032,0.0032,0.0032,0,0.0271,0.0282,0.025,0.026,0.0263,0.022,0.0238,0.0218,0.0184,0.0179,0.0152,0.0104,0.0069,0.0064,0.0069,0.0048,0.0022,0.0052,0.0044,0.0045,0.0046,0.0012,0.0009,0.0036,0.0035,0.0035,0.0035,0,0.0309,0.032,0.0328,0.033,0.0326,0.0337,0.0308,0.0298,0.0273,0.0253,0.0234,0.0179,0.0153,0.0135,0.0109,0.0103,0.008,0.0054,0.003,0.0054,0.0016,0.0012,0.0041,0.0039,0.0038,0.0037,0,0,0.0344,0.0355,0.0358,0.0376,0.0369,0.0371,0.0375,0.0371,0.0385,0.0333,0.034,0.0288,0.0255,0.0235,0.0191,0.0157,0.0133,0.0116,0.0112,0.0088,0.0057,0.0041,0.0035,0.0105,0.0105,0.0104,0.0029,0,0.0388,0.0431,0.0421,0.0466,0.0489,0.0459,0.0471,0.0458,0.0443,0.0436,0.0369,0.0361,0.0295,0.0285,0.024,0.0163,0.0126,0.0156,0.0033,0.003,0.0017,0.0031,0.0061,-0.0003,0.0025,0.0024,0.0023,0,0.0433,0.0459,0.0512,0.0543,0.0549,0.0564,0.0583,0.0594,0.0573,0.0557,0.0526,0.0475,0.0421,0.0357,0.0234,0.0257,0.0168,0.0098,0.0093,0.0054,0.0007,-0.0024,-0.0012,0.0016,0.0017,0.0017,0.0018,0,0.0481,0.0523,0.0573,0.0584,0.0607,0.0618,0.0632,0.0631,0.0666,0.0642,0.0655,0.0571,0.0537,0.0413,0.0264,0.0251,0.0123,0.0082,-0.0018,-0.0021,-0.0031,-0.0033,-0.0005,-0.0005,-0.0005,-0.0005,-0.0005,0,0.0538,0.0575,0.0598,0.0624,0.069,0.0678,0.0748,0.0743,0.0766,0.082,0.0729,0.0739,0.055,0.0452,0.0301,0.0137,0.0147,-0.0003,-0.0038,-0.0006,-0.0005,-0.0018,-0.0019,-0.0008,-0.0007,-0.0007,-0.0006,0,0.0581,0.0598,0.0658,0.0693,0.0716,0.0762,0.0838,0.0887,0.0892,0.0955,0.0952,0.0871,0.074,0.0546,0.0346,0.0198,0.0034,-0.0029,0.0024,-0.0004,-0.0098,-0.0094,-0.0151,-0.0152,-0.0153,-0.0153,-0.0154,0,0.0608,0.0645,0.0717,0.0764,0.0784,0.0858,0.0915,0.0951,0.1019,0.1041,0.1077,0.0972,0.0918,0.0617,0.0341,0.0077,0.0036,-0.0075,-0.0102,-0.0083,-0.0112,-0.0106,-0.0101,-0.0093,-0.0093,-0.0093,-0.0093,0,0.0661,0.0684,0.0734,0.084,0.0906,0.1003,0.1088,0.1164,0.1208,0.1247,0.1283,0.1241,0.096,0.0698,0.0331,0.0154,-0.0033,-0.0086,-0.0079,-0.0056,-0.0034,-0.006,-0.0056,-0.0094,-0.0094,-0.0093,-0.0093,-0.0093,0.07,0.0748,0.0819,0.0919,0.101,0.1131,0.1219,0.1309,0.142,0.1492,0.1442,0.1379,0.1081,0.0621,0.0299,-0.0043,-0.0028,-0.0151,-0.0149,-0.0147,-0.0121,-0.0102,-0.017,-0.017,-0.0171,-0.0171,-0.0171,0,0.0747,0.0803,0.0895,0.1012,0.1119,0.1164,0.1322,0.1407,0.1534,0.1595,0.1618,0.1328,0.1028,0.0676,0.0172,-0.0124,-0.0143,-0.0218,-0.018,-0.0177,-0.0174,-0.015,-0.0206,-0.0208,-0.0209,-0.021,0,0,0.0772,0.086,0.0908,0.1083,0.1173,0.1324,0.1421,0.1543,0.1627,0.1686,0.1653,0.159,0.115,0.0779,0.0374,0.0078,0.0023,0.0026,0.009,0.0188,0.0194,-0.0097,-0.0051,0,0,0,0,0]}],[{"header":{"parameterUnit":"m.s-1","parameterCategory":2,"la1":30.2991,"la2":30.254,"lo1":-89.0895,"lo2":-89.0444,"dy":0.0017,"dx":0.0017,"nx":28,"ny":28,"refTime":"2024-03-18T09:00:00:Z","depth":"4","parameterNumber":2,"parameterNumberName":"U-component_of_CURRENTS"},"data":[0,0,0,0,0,0,0,0,0,0,0,0,0,0,0,0,0,0,0,0,0,0,0,0,0,0,0,0,0,0,0,0,0,0,0,0,0,0,0,0,0,0,0,0,0,0,0,0,0,0,0,0,0,0,0,0,0,0,0.1814,0.1815,0,0.1884,0.1885,0.1885,0.195,0.1951,0.1952,0.1953,0.2038,0.204,0.2041,0,0,0,0,0,0,0,0,0,0,0,0,0,0.1731,0.1732,0.1814,0.1815,0.1816,0.1884,0.1885,0.1886,0.195,0.1951,0.1953,0.1954,0.2038,0.204,0.2041,0,0,0,0,0,0,0,0,0,0,0,0,0,0.1779,0.1732,0.1814,0.1858,0.1863,0.1884,0.1885,0.1886,0.195,0.1951,0.1953,0.1954,0.2037,0.2039,0.2041,0.2025,0,0,0.2048,0.2049,0,0,0,0,0,0,0,0,0.1776,0.1781,0.185,0.1855,0.186,0.1912,0.1887,0.1934,0.195,0.1915,0.1953,0.1955,0.1998,0.2003,0.201,0.2029,0.2032,0.2048,0.2049,0.205,0.2051,0,0,0,0,0,0,0,0.1772,0.1779,0.184,0.1851,0.1857,0.1873,0.1881,0.1896,0.1946,0.1918,0.1923,0.1934,0.2,0.2008,0.2013,0.2034,0.2048,0.205,0.2051,0.2052,0.2169,0.2171,0,0,0,0,0,0,0.1766,0.1775,0.1837,0.1842,0.1823,0.1873,0.1882,0.1892,0.1946,0.1956,0.1932,0.1937,0.2004,0.201,0.2016,0.2108,0.205,0.2052,0.2053,0.2167,0.2169,0.2171,0,0,0,0,0,0,0.1764,0.1771,0.1835,0.1812,0.1821,0.1873,0.1884,0.1893,0.1941,0.1957,0.1967,0.1976,0.2005,0.2013,0.2067,0.2108,0.2053,0.2055,0.2165,0.2168,0.217,0.2223,0,0,0,0,0,0,0.1762,0.177,0.1794,0.1811,0.1823,0.1873,0.1883,0.1893,0.1944,0.1951,0.1997,0.2004,0.2007,0.2064,0.2069,0.211,0.2056,0.2162,0.2166,0.2169,0.2219,0.2227,0.2234,0,0,0,0,0,0.1758,0.1777,0.1794,0.1803,0.1847,0.1874,0.1882,0.1921,0.1945,0.197,0.2006,0.2005,0.2091,0.2067,0.2073,0.2115,0.2161,0.2165,0.2169,0.2215,0.2226,0.2234,0,0,0,0,0,0,0.1755,0.1786,0.1805,0.1835,0.1866,0.1886,0.1919,0.1941,0.1988,0.201,0.2023,0.2032,0.2097,0.2098,0.2072,0.216,0.2128,0.2133,0.2161,0.2171,0.2178,0.2189,0.2058,0,0,0,0,0,0.1763,0.1791,0.1817,0.1847,0.1865,0.1899,0.1924,0.195,0.1984,0.2009,0.204,0.2077,0.211,0.2136,0.2162,0.2204,0.221,0.2238,0.2246,0.2252,0.2266,0.2305,0.2317,0.2185,0.2185,0.2185,0,0,0.1772,0.1794,0.1812,0.185,0.188,0.191,0.1919,0.1967,0.2005,0.2009,0.2082,0.2107,0.2129,0.2183,0.2212,0.2194,0.2294,0.2258,0.2263,0.2274,0.231,0.2323,0.2334,0.2188,0.2188,0.2187,0,0,0.1785,0.1823,0.1846,0.1875,0.1926,0.1945,0.1967,0.2011,0.205,0.2106,0.2127,0.218,0.2225,0.2253,0.227,0.2336,0.2334,0.2351,0.24,0.2437,0.2448,0.2457,0.2479,0.249,0.2354,0.2354,0.2354,0,0.1799,0.1827,0.1858,0.1888,0.1919,0.1965,0.1997,0.2038,0.2098,0.2132,0.2142,0.2236,0.2258,0.2323,0.2355,0.2355,0.2371,0.2358,0.2446,0.2456,0.2465,0.2485,0.2497,0.2357,0.2357,0.2356,0.2356,0,0.1816,0.1857,0.1877,0.1929,0.1965,0.2006,0.2056,0.2108,0.2158,0.2196,0.2283,0.2317,0.2374,0.2392,0.2397,0.248,0.2469,0.245,0.2418,0.2481,0.2498,0.251,0.2361,0.236,0.2359,0.2359,0,0,0.1797,0.1873,0.1886,0.1916,0.1994,0.2017,0.2093,0.2159,0.2217,0.2284,0.2356,0.2426,0.246,0.2483,0.2503,0.2541,0.2621,0.2535,0.2535,0.255,0.2703,0.2533,0.2529,0.262,0.2622,0.2624,0.2688,0,0.1806,0.1858,0.19,0.1963,0.1993,0.2061,0.2125,0.2198,0.2267,0.235,0.241,0.2491,0.249,0.2536,0.2577,0.2618,0.2654,0.2605,0.2646,0.2648,0.2483,0.2537,0.2632,0.2696,0.2699,0.2701,0.2702,0,0.1802,0.184,0.1898,0.198,0.2003,0.2055,0.2161,0.2225,0.2346,0.2408,0.2497,0.255,0.2646,0.2627,0.2723,0.2696,0.2714,0.2728,0.273,0.2562,0.2498,0.2623,0.2722,0.272,0.2719,0.2717,0.2716,0,0.1752,0.1836,0.1882,0.1913,0.2014,0.2065,0.2131,0.2249,0.2324,0.2462,0.2533,0.2633,0.2709,0.275,0.2795,0.2775,0.2879,0.2843,0.2702,0.269,0.28,0.2789,0.2903,0.2903,0.2903,0.2903,0.2903,0,0.1723,0.1765,0.187,0.1894,0.1969,0.2049,0.2153,0.2232,0.2371,0.2454,0.2571,0.2639,0.275,0.2816,0.2829,0.2798,0.2905,0.2721,0.2698,0.282,0.2811,0.2807,0.2795,0.2905,0.2905,0.2904,0.2904,0,0.1656,0.1726,0.1786,0.1902,0.1948,0.2004,0.2167,0.2225,0.2376,0.2487,0.2542,0.2688,0.276,0.2834,0.2908,0.2827,0.2822,0.2783,0.2922,0.2904,0.26,0.259,0.2621,0.2616,0.2611,0.2608,0.2604,0,0.162,0.1646,0.1781,0.1822,0.1882,0.199,0.2055,0.2216,0.2279,0.2482,0.2509,0.2652,0.2723,0.269,0.2777,0.2783,0.2751,0.2724,0.2648,0.2598,0.2573,0.2571,0.2568,0.2597,0.2596,0.2595,0.2594,0,0.155,0.1618,0.1666,0.1757,0.183,0.1907,0.2013,0.2056,0.2221,0.238,0.2423,0.2462,0.2538,0.2578,0.261,0.2605,0.2724,0.2676,0.2684,0.2612,0.2569,0.2548,0.2551,0.2578,0.258,0.2581,0.2582,0,0.1505,0.1524,0.1601,0.1664,0.1749,0.1778,0.1861,0.1923,0.2014,0.2223,0.2229,0.2369,0.2507,0.2487,0.2511,0.25,0.2455,0.236,0.2384,0.2402,0.23,0.2211,0.2098,0,0,0,0,0,0.1446,0.1449,0.1498,0.1548,0.1622,0.1676,0.1801,0.1883,0.2046,0.2016,0.2122,0.2174,0.2213,0.229,0.2234,0.2417,0.2468,0.2341,0.2372,0.249,0.2508,0.2407,0,0,0,0,0,0,0.1403,0.1444,0.1454,0.1433,0.1445,0.151,0.1584,0.1696,0.1699,0.1873,0.1908,0.2036,0.2113,0.222,0.219,0.2212,0.2185,0.2436,0.243,0.2479,0.2496,0.2511,0.2413,0,0,0,0,0]},{"header":{"parameterUnit":"m.s-1","parameterCategory":2,"la1":30.2991,"la2":30.254,"lo1":-89.0895,"lo2":-89.0444,"dy":0.0017,"dx":0.0017,"nx":28,"ny":28,"refTime":"2024-03-18T09:00:00:Z","depth":"4","parameterNumber":3,"parameterNumberName":"V-component_of_CURRENTS"},"data":[0,0,0,0,0,0,0,0,0,0,0,0,0,0,0,0,0,0,0,0,0,0,0,0,0,0,0,0,0,0,0,0,0,0,0,0,0,0,0,0,0,0,0,0,0,0,0,0,0,0,0,0,0,0,0,0,0,0,0.0145,0.0145,0,0.0108,0.0108,0.0107,0.0081,0.008,0.008,0.008,0.0032,0.0031,0.003,0,0,0,0,0,0,0,0,0,0,0,0,0,0.0174,0.0174,0.0145,0.0145,0.0144,0.0108,0.0108,0.0107,0.0081,0.008,0.008,0.008,0.0033,0.0031,0.003,0,0,0,0,0,0,0,0,0,0,0,0,0,0.0152,0.0174,0.0145,0.0127,0.0125,0.0108,0.0108,0.0107,0.0081,0.008,0.008,0.008,0.0033,0.0031,0.003,0.0026,0,0,0.0025,0.0024,0,0,0,0,0,0,0,0,0.0153,0.0151,0.013,0.0128,0.0126,0.0099,0.01,0.008,0.0081,0.0097,0.008,0.008,0.0054,0.005,0.0044,0.0024,0.0022,0.0025,0.0024,0.0023,0.0023,0,0,0,0,0,0,0,0.0155,0.0152,0.013,0.013,0.0127,0.0114,0.011,0.0096,0.0078,0.0096,0.0094,0.009,0.0052,0.0046,0.0043,0.0021,0.0025,0.0023,0.0022,0.0022,-0.0003,-0.0003,0,0,0,0,0,0,0.0161,0.0154,0.0132,0.0129,0.0139,0.0114,0.011,0.0108,0.0078,0.0073,0.009,0.0089,0.0049,0.0045,0.0041,0.0046,0.0023,0.0022,0.0021,-0.0003,-0.0003,-0.0003,0,0,0,0,0,0,0.0161,0.0159,0.0133,0.0141,0.0136,0.0114,0.0111,0.0107,0.0103,0.0074,0.0069,0.0091,0.0048,0.0043,0.0035,0.0044,0.0021,0.0019,-0.0004,-0.0003,-0.0003,0.005,0,0,0,0,0,0,0.0163,0.016,0.0164,0.0141,0.0136,0.0131,0.0111,0.0107,0.0101,0.0099,0.0073,0.0067,0.0048,0.0038,0.0034,0.0041,0.0018,-0.0004,-0.0004,-0.0003,0.0048,0.0052,0.0056,0,0,0,0,0,0.0164,0.0172,0.0165,0.0162,0.0142,0.0131,0.0128,0.011,0.0101,0.0104,0.0087,0.0068,0.0038,0.0037,0.0032,0.0039,-0.0004,-0.0004,-0.0003,0.0046,0.0051,0.0056,0,0,0,0,0,0,0.0186,0.0169,0.0161,0.0164,0.0151,0.0127,0.0129,0.0115,0.0104,0.0104,0.0074,0.0069,0.0064,0.0045,0.0044,0.0033,0.0013,0.0013,0.0052,0.0057,0.0061,0.0075,0.0017,0,0,0,0,0,0.0194,0.0197,0.0176,0.0179,0.0175,0.0154,0.0148,0.0137,0.0121,0.0115,0.0095,0.0076,0.0062,0.0055,0.0038,0.0035,0.0008,0.0035,0.0039,0.0043,0.0051,0.0014,0.0015,-0.0,-0.0,-0.0,0,0,0.0204,0.0195,0.0196,0.0185,0.0174,0.0179,0.015,0.0147,0.015,0.0113,0.0113,0.009,0.0064,0.006,0.0056,0.0046,0.0033,0.0044,0.0047,0.0053,0.0014,0.0016,0.0017,0.0,-0.0,-0.0,0,0,0.0225,0.0217,0.0227,0.0222,0.0211,0.02,0.0202,0.0181,0.0172,0.0168,0.0142,0.0125,0.0105,0.0086,0.0075,0.0091,0.0055,0.0086,0.0119,0.0083,0.0084,0.0085,0.0053,0.005,0.0088,0.0089,0.0089,0,0.0237,0.0248,0.0228,0.0237,0.0242,0.0214,0.023,0.0217,0.0196,0.0194,0.0176,0.0143,0.0117,0.0111,0.0116,0.01,0.0077,0.0104,0.0089,0.0089,0.0088,0.0055,0.0051,0.0091,0.0091,0.0091,0.009,0,0.0264,0.0277,0.0284,0.029,0.029,0.03,0.0282,0.0277,0.0263,0.025,0.0236,0.0196,0.0177,0.0163,0.0146,0.0135,0.0119,0.0098,0.0078,0.0093,0.0057,0.0052,0.0095,0.0094,0.0093,0.0093,0,0,0.0286,0.0302,0.0306,0.0322,0.0322,0.0326,0.0332,0.0331,0.0344,0.0308,0.0312,0.0275,0.0251,0.0236,0.0203,0.0171,0.0144,0.0141,0.0138,0.0114,0.0069,0.0057,0.005,0.0122,0.0121,0.0121,0.0045,0,0.0317,0.0353,0.035,0.0389,0.0408,0.0392,0.0403,0.0397,0.0388,0.0384,0.0331,0.0327,0.028,0.0274,0.0233,0.017,0.0134,0.0166,0.0055,0.0052,0.0042,0.0045,0.0119,0.0041,0.004,0.0039,0.0039,0,0.0347,0.037,0.0414,0.0445,0.0452,0.0469,0.0489,0.05,0.0485,0.0474,0.0449,0.0412,0.0364,0.0319,0.021,0.0235,0.0161,0.0103,0.0098,0.0066,0.0031,0.0022,0.0029,0.003,0.0031,0.0031,0.0032,0,0.0375,0.0415,0.0457,0.0468,0.0495,0.051,0.0527,0.053,0.0558,0.054,0.0548,0.0478,0.0448,0.0345,0.0222,0.0219,0.0096,0.007,-0.0013,-0.0015,-0.0005,-0.0005,-0.0009,-0.0009,-0.0009,-0.0009,-0.0008,0,0.0409,0.0442,0.0476,0.0498,0.0556,0.0555,0.0615,0.0616,0.0634,0.0673,0.0605,0.0602,0.0454,0.0366,0.0244,0.0103,0.0107,-0.0005,-0.0035,0.0019,0.0022,-0.0009,-0.0008,-0.0012,-0.0011,-0.001,-0.001,0,0.043,0.0452,0.0506,0.0548,0.0573,0.0614,0.0687,0.0725,0.0732,0.0775,0.0773,0.0698,0.0578,0.0423,0.0251,0.0141,0.0002,-0.0051,0.0025,0.0,-0.0091,-0.0087,-0.0149,-0.015,-0.0151,-0.0152,-0.0153,0,0.0442,0.0474,0.055,0.0592,0.0617,0.0687,0.0737,0.0774,0.0821,0.0832,0.0849,0.0755,0.0678,0.0433,0.0259,0.0022,-0.0016,-0.0093,-0.01,-0.0082,-0.0105,-0.0099,-0.0094,-0.0154,-0.0154,-0.0154,-0.0155,0,0.0469,0.0498,0.0543,0.0637,0.0701,0.0783,0.0856,0.09,0.0937,0.0942,0.0915,0.0785,0.0645,0.0442,0.0257,0.0086,-0.0046,-0.0103,-0.0103,-0.011,-0.0089,-0.0109,-0.0103,-0.0158,-0.0157,-0.0157,-0.0157,0,0.0489,0.0526,0.0592,0.0675,0.0765,0.085,0.0889,0.0936,0.0984,0.0987,0.0974,0.0819,0.0731,0.0475,0.0306,0.0134,0.0083,0.0019,0.0012,0.0013,0.0075,0.0127,0.0102,0,0,0,0,0,0.0505,0.0549,0.0625,0.0715,0.0805,0.0864,0.0956,0.0985,0.1021,0.1011,0.0999,0.0867,0.0614,0.0509,0.0336,0.0274,0.0044,0.0062,-0.0036,-0.0175,-0.0171,-0.0128,0,0,0,0,0,0,0.0514,0.0582,0.0622,0.0738,0.0805,0.091,0.0974,0.0997,0.0997,0.1,0.0875,0.081,0.0571,0.0713,0.0328,0.0275,0.0185,-0.0053,-0.0057,-0.0177,-0.0173,-0.0171,-0.0125,0,0,0,0,0]}]]